Tillbaka till svenska Fidonet
English   Information   Debug  
FILM   0/18
FNEWS_PUBLISH   4461
FN_SYSOP   41736
FN_SYSOP_OLD1   71952
FTP_FIDO   0/2
FTSC_PUBLIC   0/13627
FUNNY   0/4886
GENEALOGY.EUR   0/71
GET_INFO   105
GOLDED   0/408
HAM   0/16084
HOLYSMOKE   0/6791
HOT_SITES   0/1
HTMLEDIT   0/71
HUB203   466
HUB_100   264
HUB_400   39
HUMOR   0/29
IC   0/2851
INTERNET   0/424
INTERUSER   0/3
IP_CONNECT   719
JAMNNTPD   0/233
JAMTLAND   0/47
KATTY_KORNER   0/41
LAN   0/16
LINUX-USER   0/19
LINUXHELP   0/1155
LINUX   0/22120
LINUX_BBS   0/957
mail   18.68
mail_fore_ok   249
MENSA   0/341
MODERATOR   0/102
MONTE   0/992
MOSCOW_OKLAHOMA   0/1245
MUFFIN   0/783
MUSIC   0/321
N203_STAT   932
N203_SYSCHAT   313
NET203   321
NET204   69
NET_DEV   0/10
NORD.ADMIN   0/101
NORD.CHAT   0/2572
NORD.FIDONET   189
NORD.HARDWARE   0/28
NORD.KULTUR   0/114
NORD.PROG   0/32
NORD.SOFTWARE   0/88
NORD.TEKNIK   0/58
NORD   0/453
OCCULT_CHAT   0/93
OS2BBS   0/787
OS2DOSBBS   0/580
OS2HW   0/42
OS2INET   0/37
OS2LAN   0/134
OS2PROG   0/36
OS2REXX   0/113
OS2USER-L   207
OS2   0/4794
OSDEBATE   0/18996
PASCAL   0/490
PERL   0/457
PHP   0/45
POINTS   0/405
POLITICS   0/29554
POL_INC   0/14731
PSION   103
R20_ADMIN   1124
R20_AMATORRADIO   0/2
R20_BEST_OF_FIDONET   13
R20_CHAT   0/893
R20_DEPP   0/3
R20_DEV   399
R20_ECHO2   1379
R20_ECHOPRES   0/35
R20_ESTAT   0/719
R20_FIDONETPROG...
...RAM.MYPOINT
  0/2
R20_FIDONETPROGRAM   0/22
R20_FIDONET   0/248
R20_FILEFIND   0/24
R20_FILEFOUND   0/22
R20_HIFI   0/3
R20_INFO2   3268
R20_INTERNET   0/12940
R20_INTRESSE   0/60
R20_INTR_KOM   0/99
R20_KANDIDAT.CHAT   42
R20_KANDIDAT   28
R20_KOM_DEV   112
R20_KONTROLL   0/13318
R20_KORSET   0/18
R20_LOKALTRAFIK   0/24
R20_MODERATOR   0/1852
R20_NC   76
R20_NET200   245
R20_NETWORK.OTH...
...ERNETS
  0/13
R20_OPERATIVSYS...
...TEM.LINUX
  0/44
R20_PROGRAMVAROR   0/1
R20_REC2NEC   534
R20_SFOSM   0/341
R20_SF   0/108
R20_SPRAK.ENGLISH   0/1
R20_SQUISH   107
R20_TEST   2
R20_WORST_OF_FIDONET   12
RAR   0/9
RA_MULTI   106
RA_UTIL   0/162
REGCON.EUR   0/2056
REGCON   0/13
SCIENCE   0/1206
SF   0/239
SHAREWARE_SUPPORT   0/5146
SHAREWRE   0/14
SIMPSONS   0/169
STATS_OLD1   0/2539.065
STATS_OLD2   0/2530
STATS_OLD3   0/2395.095
STATS_OLD4   0/1692.25
SURVIVOR   0/495
SYSOPS_CORNER   0/3
SYSOP   0/84
TAGLINES   0/112
TEAMOS2   0/4530
TECH   0/2617
TEST.444   0/105
TRAPDOOR   0/19
TREK   0/755
TUB   0/290
UFO   0/40
UNIX   0/1316
USA_EURLINK   0/102
USR_MODEMS   0/1
VATICAN   0/2740
VIETNAM_VETS   0/14
VIRUS   0/378
VIRUS_INFO   0/201
VISUAL_BASIC   0/473
WHITEHOUSE   0/5187
WIN2000   0/101
WIN32   0/30
WIN95   0/4290
WIN95_OLD1   0/70272
WINDOWS   0/1517
WWB_SYSOP   0/419
WWB_TECH   0/810
ZCC-PUBLIC   0/1
ZEC   4

 
4DOS   0/134
ABORTION   0/7
ALASKA_CHAT   0/506
ALLFIX_FILE   0/1313
ALLFIX_FILE_OLD1   0/7997
ALT_DOS   0/152
AMATEUR_RADIO   0/1039
AMIGASALE   0/14
AMIGA   0/331
AMIGA_INT   0/1
AMIGA_PROG   0/20
AMIGA_SYSOP   0/26
ANIME   0/15
ARGUS   0/924
ASCII_ART   0/340
ASIAN_LINK   0/651
ASTRONOMY   0/417
AUDIO   0/92
AUTOMOBILE_RACING   0/105
BABYLON5   0/17862
BAG   135
BATPOWER   0/361
BBBS.ENGLISH   0/382
BBSLAW   0/109
BBS_ADS   0/5290
BBS_INTERNET   0/507
BIBLE   0/3563
BINKD   0/1119
BINKLEY   0/215
BLUEWAVE   0/2173
CABLE_MODEMS   0/25
CBM   0/46
CDRECORD   0/66
CDROM   0/20
CLASSIC_COMPUTER   0/378
COMICS   0/15
CONSPRCY   0/899
COOKING   33710
COOKING_OLD1   0/24719
COOKING_OLD2   0/40862
COOKING_OLD3   0/37489
COOKING_OLD4   0/35496
COOKING_OLD5   9370
C_ECHO   0/189
C_PLUSPLUS   0/31
DIRTY_DOZEN   0/201
DOORGAMES   0/2065
DOS_INTERNET   0/196
duplikat   6002
ECHOLIST   0/18295
EC_SUPPORT   0/318
ELECTRONICS   0/359
ELEKTRONIK.GER   1534
ENET.LINGUISTIC   0/13
ENET.POLITICS   0/4
ENET.SOFT   0/11701
ENET.SYSOP   33963
ENET.TALKS   0/32
ENGLISH_TUTOR   0/2000
EVOLUTION   0/1335
FDECHO   0/217
FDN_ANNOUNCE   0/7068
FIDONEWS   24191
FIDONEWS_OLD1   0/49742
FIDONEWS_OLD2   0/35949
FIDONEWS_OLD3   0/30874
FIDONEWS_OLD4   0/37224
FIDO_SYSOP   12852
FIDO_UTIL   0/180
FILEFIND   0/209
FILEGATE   0/212
Möte HAM, 16084 texter
 lista första sista föregående nästa
Text 118, 735 rader
Skriven 2004-12-03 02:14:17 av Amsat List (1:323/120.0)
Ärende: 
========
SB KEPS @ AMSAT  $ORB04337.O
Orbital Elements  04337.OSCAR

HR AMSAT ORBITAL ELEMENTS FOR OSCAR SATELLITES
FROM WA5QGD FORT WORTH,TX December 2, 2004
SEND SUBSCRIBE/UNSUBSCRIBE TO majordomo@amsat.org ONLY
BID: ORB04337.O
TO ALL RADIO AMATEURS BT

Satellite: AO-07
Catalog number: 07530
Epoch time:      04336.71085858
Element set:     354
Inclination:      101.6590 deg
RA of node:        20.6812 deg
Eccentricity:    0.0012048
Arg of perigee:   257.5187 deg
Mean anomaly:     102.4537 deg
Mean motion:   12.53569731 rev/day
Decay rate:       -2.9e-07 rev/day^2
Epoch rev:           37490
Checksum:              293

Satellite: AO-10
Catalog number: 14129
Epoch time:      04337.61987519
Element set:     126
Inclination:       26.8553 deg
RA of node:        58.6578 deg
Eccentricity:    0.6032795
Arg of perigee:   145.5589 deg
Mean anomaly:     274.8028 deg
Mean motion:    2.05867929 rev/day
Decay rate:      .00000000 rev/day^2
Epoch rev:           16148
Checksum:              329

Satellite: UO-11
Catalog number: 14781
Epoch time:      04337.02109395
Element set:     650
Inclination:       98.1905 deg
RA of node:       324.7741 deg
Eccentricity:    0.0008081
Arg of perigee:   272.4972 deg
Mean anomaly:      87.5328 deg
Mean motion:   14.79093283 rev/day
Decay rate:       9.74e-06 rev/day^2
Epoch rev:           11265
Checksum:              314

Satellite: RS-10/11
Catalog number: 18129
Epoch time:      04337.22829631
Element set:     552
Inclination:       82.9288 deg
RA of node:        23.8297 deg
Eccentricity:    0.0010624
Arg of perigee:   207.8413 deg
Mean anomaly:     152.2172 deg
Mean motion:   13.72750138 rev/day
Decay rate:        8.9e-07 rev/day^2
Epoch rev:           87405
Checksum:              301

Satellite: FO-20
Catalog number: 20480
Epoch time:      04337.07038738
Element set:     756
Inclination:       99.0199 deg
RA of node:       182.7661 deg
Eccentricity:    0.0540363
Arg of perigee:   326.5240 deg
Mean anomaly:      30.2764 deg
Mean motion:   12.83344200 rev/day
Decay rate:        1.2e-07 rev/day^2
Epoch rev:           69421
Checksum:              283

Satellite: RS-12/13
Catalog number: 21089
Epoch time:      04337.76171941
Element set:     777
Inclination:       82.9250 deg
RA of node:        56.6646 deg
Eccentricity:    0.0027631
Arg of perigee:   267.4819 deg
Mean anomaly:      92.3202 deg
Mean motion:   13.74444257 rev/day
Decay rate:        3.8e-07 rev/day^2
Epoch rev:           69351
Checksum:              321

Satellite: RS-15
Catalog number: 23439
Epoch time:      04336.79945213
Element set:    0837
Inclination:      064.8199 deg
RA of node:       066.7742 deg
Eccentricity:    0.0158158
Arg of perigee:   351.1936 deg
Mean anomaly:     008.6222 deg
Mean motion:   11.27550430 rev/day
Decay rate:       -3.9e-07 rev/day^2
Epoch rev:           40913
Checksum:              315

Satellite: FO-29
Catalog number: 24278
Epoch time:      04337.26875384
Element set:     837
Inclination:       98.5763 deg
RA of node:        47.1535 deg
Eccentricity:    0.0350431
Arg of perigee:   326.5951 deg
Mean anomaly:      31.3507 deg
Mean motion:   13.52905402 rev/day
Decay rate:       -2.4e-07 rev/day^2
Epoch rev:           40956
Checksum:              314

Satellite: SO-33
Catalog number: 25509
Epoch time:      04337.24639000
Element set:     249
Inclination:       31.4324 deg
RA of node:        65.7424 deg
Eccentricity:    0.0356043
Arg of perigee:   244.6106 deg
Mean anomaly:     111.7306 deg
Mean motion:   14.27933345 rev/day
Decay rate:       5.95e-06 rev/day^2
Epoch rev:           31865
Checksum:              284

Satellite: AO-40
Catalog number: 26609
Epoch time:      04337.45653936
Element set:     463
Inclination:        9.2121 deg
RA of node:       331.9373 deg
Eccentricity:    0.7960547
Arg of perigee:   344.0079 deg
Mean anomaly:       0.9003 deg
Mean motion:    1.25582601 rev/day
Decay rate:      .00000000 rev/day^2
Epoch rev:            1878
Checksum:              276

/EX
SB KEPS @ AMSAT  $ORB04337.D
Orbital Elements  04337.MICROS

HR AMSAT ORBITAL ELEMENTS FOR THE MICROSATS
FROM WA5QGD FORT WORTH,TX December 2, 2004
SEND SUBSCRIBE/UNSUBSCRIBE TO majordomo@amsat.org ONLY
BID: ORB04337.D
TO ALL RADIO AMATEURS BT

Satellite: UO-14
Catalog number: 20437
Epoch time:      04337.06983300
Element set:     652
Inclination:       98.2002 deg
RA of node:       351.7694 deg
Eccentricity:    0.0011752
Arg of perigee:    62.6153 deg
Mean anomaly:     297.6224 deg
Mean motion:   14.31386127 rev/day
Decay rate:        8.2e-07 rev/day^2
Epoch rev:           77583
Checksum:              294

Satellite: AO-16
Catalog number: 20439
Epoch time:      04337.52981600
Element set:     341
Inclination:       98.2268 deg
RA of node:         7.1136 deg
Eccentricity:    0.0011981
Arg of perigee:    69.1763 deg
Mean anomaly:     291.0714 deg
Mean motion:   14.31646143 rev/day
Decay rate:        9.9e-07 rev/day^2
Epoch rev:           77595
Checksum:              305

Satellite: WO-18
Catalog number: 20441
Epoch time:      04336.91572307
Element set:     531
Inclination:       98.2409 deg
RA of node:        10.6876 deg
Eccentricity:    0.0012668
Arg of perigee:    71.0606 deg
Mean anomaly:     289.1972 deg
Mean motion:   14.31720500 rev/day
Decay rate:        8.0e-07 rev/day^2
Epoch rev:           77592
Checksum:              292

Satellite: LO-19
Catalog number: 20442
Epoch time:      04337.65618567
Element set:     267
Inclination:       98.2512 deg
RA of node:        15.5887 deg
Eccentricity:    0.0012990
Arg of perigee:    66.3281 deg
Mean anomaly:     293.9264 deg
Mean motion:   14.31893059 rev/day
Decay rate:       1.03e-06 rev/day^2
Epoch rev:           77609
Checksum:              327

